Notices

What's New in latest Release from April 7th, 2021:

- Updated Glossary, including Speed of Maximum Gust, and Total Hourly Precipitation

- Updated national and regional climate services offices contacts and prices information

- Addition of station inventory lists for 1981-2010, 1971-2000, and 1961-1990 Normals.

If you haven't already, please take our survey and provide feedback about our website: https://eccc.sondage-survey.ca/f/LanguageSelection.aspx?s=442ca660-fcf1-47c0-95a9-59707d6fd709

Hourly Data Report for July 21, 2003

TORONTO CITY
ONTARIO

43°40'00.000" N
79°24'00.000" W
112.50 m
6158355
71508
XTO

Download Data

Hourly Data (July 2003)
Hourly Data Report for July 21, 2003
TIME
LST
Temp Definition
°C
Dew Point Definition
°C
Rel Hum Definition
%
Precip. Amount Definition
mm

Wind Dir Definition
10's deg

Wind Spd Definition
km/h
Visibility Definition
km
Stn Press Definition
kPa
Hmdx Definition


Wind Chill Definition


Weather Definition


00:00 17.2 15.9 92   LegendMM LegendMM LegendMM 99.30     LegendNANA
01:00 17.1 16.0 93   LegendMM LegendMM LegendMM 99.26     LegendNANA
02:00 17.4 16.2 93   LegendMM LegendMM LegendMM 99.32     LegendNANA
03:00 16.4 15.3 93   LegendMM LegendMM LegendMM 99.28     LegendNANA
04:00 16.7 16.1 96   LegendMM LegendMM LegendMM 99.33     LegendNANA
05:00 16.4 15.5 94   LegendMM LegendMM LegendMM 99.30     LegendNANA
06:00 17.8 17.0 95   LegendMM LegendMM LegendMM 99.30     LegendNANA
07:00 19.0 16.9 88   LegendMM LegendMM LegendMM 99.25     LegendNANA
08:00 20.2 17.3 83   LegendMM LegendMM LegendMM 99.26 26   LegendNANA
09:00 19.5 16.9 85   LegendMM LegendMM LegendMM 99.26     LegendNANA
10:00 18.8 16.8 88   LegendMM LegendMM LegendMM 99.22     LegendNANA
11:00 19.0 17.1 89   LegendMM LegendMM LegendMM 99.17     LegendNANA
12:00 20.0 17.7 87   LegendMM LegendMM LegendMM 99.20 26   LegendNANA
13:00 20.0 17.8 87   LegendMM LegendMM LegendMM 99.15 26   LegendNANA
14:00 19.7 18.3 92   LegendMM LegendMM LegendMM 99.10     LegendNANA
15:00 20.3 18.6 90   LegendMM LegendMM LegendMM 99.05 27   LegendNANA
16:00 22.2 19.3 84   LegendMM LegendMM LegendMM 99.04 29   LegendNANA
17:00 21.5 18.5 83   LegendMM LegendMM LegendMM 99.10 28   LegendNANA
18:00 18.3 17.4 94   LegendMM LegendMM LegendMM 99.13     LegendNANA
19:00 18.0 17.4 96   LegendMM LegendMM LegendMM 99.14     LegendNANA
20:00 18.7 18.1 96   LegendMM LegendMM LegendMM 99.15     LegendNANA
21:00 19.0 18.5 97   LegendMM LegendMM LegendMM 99.18     LegendNANA
22:00 18.8 18.4 98   LegendMM LegendMM LegendMM 99.13     LegendNANA
23:00 18.8 18.5 98   LegendMM LegendMM LegendMM 99.19     LegendNANA

Notes on Data Quality.

Legend

  • E = Estimated
  • M = Missing
  • NA = Not Available*
  • [empty] = Indicates an unobserved value
Date modified: